[[[{"header":{"parameterUnit":"kt","parameterCategory":2,"dx":1,"dy":1,"la1":30.253999710083008,"la2":30.299108505249023,"lo1":-89.0895004272461,"lo2":-89.04439544677734,"nx":28,"ny":28,"refTime":"2022-10-28T21:00:00:Z","depth":0,"parameterNumber":1,"parameterNumberName":"U-component_of_WINDS"},"data":[-3.1858,-3.1905,-3.1901,-3.1955,-3.1961,-3.1998,-3.2011,-3.2028,-3.204,-3.2088,-3.2116,-3.2119,-3.2132,-3.2167,-3.22,-3.2201,-3.2215,-3.2237,-3.2235,-3.2139,-3.2125,-3.2113,-3.2099,-3.224,-3.224,-3.2334,-3.2335,-3.2336,-3.1794,-3.1799,-3.1825,-3.1848,-3.1871,-3.1849,-3.1866,-3.1888,-3.1924,-3.1939,-3.1965,-3.2008,-3.2042,-3.2048,-3.2082,-3.2109,-3.21,-3.2118,-3.2116,-3.2119,-3.2016,-3.2002,-3.2124,-3.2124,-3.2124,-3.2124,-3.2124,-3.2124,-3.1677,-3.1705,-3.1714,-3.1743,-3.1753,-3.1769,-3.1797,-3.1797,-3.1825,-3.1855,-3.1845,-3.1886,-3.1903,-3.194,-3.1952,-3.1987,-3.1967,-3.1985,-3.199,-3.1995,-3.2001,-3.1868,-3.1992,-3.1992,-3.1992,-3.1991,-3.1991,0,-3.1589,-3.1582,-3.1605,-3.1629,-3.1649,-3.1667,-3.1682,-3.17,-3.1685,-3.1709,-3.1744,-3.1764,-3.1804,-3.1839,-3.1868,-3.1877,-3.1856,-3.1853,-3.1866,-3.1871,-3.1873,-3.1873,-3.1707,-3.1849,-3.1848,-3.1847,-3.1846,-3.1846,-3.147,-3.1503,-3.1509,-3.1527,-3.1533,-3.1562,-3.1579,-3.1563,-3.1582,-3.1601,-3.1629,-3.1661,-3.1686,-3.1746,-3.1747,-3.1779,-3.1769,-3.1824,-3.1773,-3.1778,-3.177,-3.1768,-3.1773,-3.1833,-3.1835,-3.1836,-3.1837,0,-3.1405,-3.1393,-3.1442,-3.1444,-3.1446,-3.1483,-3.1486,-3.1516,-3.1512,-3.1552,-3.1561,-3.1555,-3.1591,-3.1583,-3.1622,-3.1617,-3.1686,-3.1675,-3.168,-3.1678,-3.1727,-3.1723,-3.1884,-3.1906,-3.1759,-3.176,-3.1762,0,-3.1299,-3.1343,-3.1323,-3.1352,-3.1402,-3.1382,-3.1433,-3.1434,-3.1443,-3.1474,-3.1447,-3.1478,-3.1462,-3.1493,-3.1485,-3.154,-3.1546,-3.1546,-3.1544,-3.1548,-3.1548,-3.1558,-3.1551,-3.1535,-3.1534,-3.1533,-3.1533,0,-3.1196,-3.1236,-3.1283,-3.129,-3.1296,-3.132,-3.1324,-3.1333,-3.1349,-3.137,-3.1381,-3.1407,-3.1422,-3.1445,-3.1434,-3.14,-3.1499,-3.145,-3.1499,-3.1499,-3.1519,-3.1518,-3.1665,-3.1532,-3.1531,-3.1531,-3.1531,0,-3.1108,-3.1124,-3.1193,-3.1197,-3.1208,-3.124,-3.1262,-3.1286,-3.1298,-3.1294,-3.131,-3.129,-3.1334,-3.1287,-3.1349,-3.1308,-3.1325,-3.1328,-3.1331,-3.1334,-3.128,-3.1364,-3.1505,-3.1519,-3.1339,-3.1338,-3.1336,0,-3.0995,-3.106,-3.104,-3.1107,-3.1135,-3.11,-3.1136,-3.1145,-3.1142,-3.1168,-3.1165,-3.1195,-3.1157,-3.1165,-3.1197,-3.1196,-3.125,-3.1189,-3.1232,-3.1233,-3.1229,-3.1358,-3.138,-3.1475,-3.1316,-3.1318,-3.1319,0,-3.0904,-3.0905,-3.0918,-3.0925,-3.0931,-3.0954,-3.0995,-3.1017,-3.1036,-3.1049,-3.1084,-3.1125,-3.1099,-3.1111,-3.1096,-3.113,-3.1213,-3.1097,-3.1097,-3.1119,-3.1303,-3.1325,-3.1341,-3.1197,-3.12,-3.1202,-3.1303,0,-3.0775,-3.0804,-3.0838,-3.0851,-3.0866,-3.0906,-3.089,-3.0909,-3.0892,-3.0886,-3.0936,-3.094,-3.0965,-3.0979,-3.0963,-3.1041,-3.1027,-3.0997,-3.0949,-3.1034,-3.1067,-3.108,-3.0901,-3.09,-3.0898,-3.0897,0,0,-3.067,-3.0709,-3.0684,-3.0719,-3.073,-3.069,-3.0734,-3.0742,-3.0756,-3.0766,-3.0739,-3.0797,-3.0801,-3.0864,-3.0889,-3.0898,-3.0912,-3.0881,-3.0993,-3.1004,-3.1014,-3.105,-3.1064,-3.0895,-3.0895,-3.0894,-3.0894,0,-3.0618,-3.0617,-3.0659,-3.0664,-3.067,-3.0659,-3.067,-3.0669,-3.0666,-3.0712,-3.068,-3.0708,-3.0753,-3.0762,-3.0773,-3.0874,-3.0848,-3.0883,-3.0942,-3.0981,-3.0994,-3.1004,-3.1042,-3.1056,-3.0891,-3.0891,-3.0891,0,-3.0526,-3.0523,-3.054,-3.056,-3.0563,-3.0592,-3.0538,-3.057,-3.0592,-3.0546,-3.0593,-3.0593,-3.0603,-3.0663,-3.0689,-3.0665,-3.0791,-3.0747,-3.0755,-3.0757,-3.0794,-3.0809,-3.0822,-3.0646,-3.0646,-3.0645,0,0,-3.0483,-3.0508,-3.0498,-3.0547,-3.0552,-3.0535,-3.0548,-3.0531,-3.0538,-3.0541,-3.0539,-3.0549,-3.0575,-3.0593,-3.0616,-3.0684,-3.0685,-3.0718,-3.0729,-3.0739,-3.0746,-3.0785,-3.08,-3.0642,-3.0642,-3.0642,0,0,-3.0463,-3.0451,-3.0431,-3.0485,-3.0492,-3.0486,-3.0519,-3.0494,-3.0512,-3.0505,-3.0479,-3.048,-3.0536,-3.0536,-3.0498,-3.0599,-3.0552,-3.056,-3.0596,-3.061,-3.0621,-3.062,-3.0442,0,0,0,0,0,-3.0398,-3.0453,-3.0434,-3.044,-3.0464,-3.0497,-3.05,-3.0477,-3.0445,-3.0471,-3.0466,-3.0435,-3.0511,-3.0476,-3.0484,-3.0526,-3.0603,-3.061,-3.0616,-3.0678,-3.0693,-3.0706,0,0,0,0,0,0,-3.04,-3.0408,-3.0433,-3.0429,-3.0434,-3.0495,-3.0434,-3.043,-3.0441,-3.0435,-3.0437,-3.0436,-3.0418,-3.0471,-3.0478,-3.0519,-3.0439,-3.0606,-3.0612,-3.0617,-3.0683,-3.0695,-3.0706,0,0,0,0,0,-3.0402,-3.0408,-3.0452,-3.0428,-3.0433,-3.0416,-3.0432,-3.0427,-3.0436,-3.0427,-3.0423,-3.0418,-3.042,-3.0425,-3.0475,-3.0516,-3.0434,-3.0437,-3.061,-3.0614,-3.0618,-3.0689,0,0,0,0,0,0,-3.0403,-3.0405,-3.0452,-3.0453,-3.0404,-3.0412,-3.0412,-3.0426,-3.0427,-3.0424,-3.0406,-3.04,-3.0422,-3.0426,-3.043,-3.0516,-3.043,-3.0433,-3.0434,-3.0613,-3.0617,-3.062,0,0,0,0,0,0,-3.0402,-3.0406,-3.0453,-3.0424,-3.0421,-3.0409,-3.0409,-3.0448,-3.0428,-3.0406,-3.0401,-3.0403,-3.0417,-3.0426,-3.0429,-3.0491,-3.0426,-3.0429,-3.0431,-3.0432,-3.0616,-3.0619,0,0,0,0,0,0,-3.0403,-3.0407,-3.0423,-3.0421,-3.0419,-3.0425,-3.0443,-3.047,-3.0401,-3.0407,-3.0394,-3.0391,-3.0419,-3.0421,-3.0429,-3.049,-3.049,-3.0426,-3.0428,-3.043,-3.0431,0,0,0,0,0,0,0,-3.0404,-3.0385,-3.0448,-3.0419,-3.0417,-3.0459,-3.046,-3.046,-3.04,-3.0397,-3.0395,-3.0392,-3.041,-3.0413,-3.0416,-3.0489,0,0,-3.0426,-3.0428,0,0,0,0,0,0,0,0,-3.0383,-3.0384,-3.0448,-3.0448,-3.0448,-3.0459,-3.046,-3.046,-3.0399,-3.0397,-3.0395,-3.0393,-3.0411,-3.0414,-3.0416,0,0,0,0,0,0,0,0,0,0,0,0,0,0,0,-3.0448,-3.0448,0,-3.0459,-3.046,-3.046,-3.0399,-3.0397,-3.0396,-3.0394,-3.0412,-3.0414,-3.0416,0,0,0,0,0,0,0,0,0,0,0,0,0,0,0,0,0,0,0,0,0,0,0,0,0,0,0,0,0,0,0,0,0,0,0,0,0,0,0,0,0,0,0,0,0,0,0,0,0,0,0,0,0,0,0,0,0,0,0,0,0,0,0,0,0,0,0,0,0]}],[{"header":{"parameterUnit":"kt","parameterCategory":2,"dx":1,"dy":1,"la1":30.253999710083008,"la2":30.299108505249023,"lo1":-89.0895004272461,"lo2":-89.04439544677734,"nx":28,"ny":28,"refTime":"2022-10-28T21:00:00:Z","depth":0,"parameterNumber":2,"parameterNumberName":"V-component_of_WINDS"},"data":[2.4795,2.4699,2.4737,2.4642,2.466,2.46,2.459,2.4579,2.458,2.4509,2.4473,2.4497,2.4507,2.4469,2.4429,2.4439,2.4418,2.4358,2.4379,2.4624,2.466,2.4694,2.4721,2.4353,2.4353,2.412,2.4118,2.4116,2.497,2.4988,2.495,2.4938,2.4905,2.4986,2.4981,2.4946,2.4889,2.4888,2.4856,2.4794,2.4748,2.478,2.474,2.469,2.4723,2.4676,2.4679,2.4678,2.4942,2.497,2.465,2.465,2.465,2.465,2.465,2.465,2.5299,2.5239,2.5256,2.5215,2.5219,2.5209,2.5157,2.5191,2.5151,2.5119,2.5169,2.5102,2.5105,2.5074,2.5071,2.5017,2.5074,2.5032,2.5021,2.5008,2.499,2.5317,2.5012,2.5013,2.5014,2.5015,2.5016,0,2.555,2.5586,2.5553,2.553,2.5502,2.5487,2.5479,2.5447,2.5533,2.5495,2.5443,2.5418,2.5367,2.5318,2.5288,2.5294,2.5368,2.5381,2.5351,2.5325,2.5305,2.5311,2.5737,2.5388,2.5391,2.5394,2.5396,2.5397,2.5881,2.5809,2.5845,2.5815,2.5822,2.5772,2.575,2.5832,2.5804,2.5802,2.5743,2.5698,2.5665,2.557,2.5604,2.5563,2.5598,2.5461,2.5592,2.5571,2.5592,2.5595,2.5586,2.5432,2.5428,2.5424,2.5421,0,2.6063,2.6128,2.6027,2.6069,2.6078,2.5995,2.6029,2.5971,2.601,2.5934,2.5921,2.5978,2.5923,2.5981,2.5927,2.5958,2.5813,2.5851,2.5813,2.5823,2.5703,2.5712,2.5312,2.5262,2.5647,2.5644,2.5641,0,2.637,2.627,2.6372,2.631,2.6201,2.6288,2.6177,2.62,2.6208,2.6149,2.6248,2.619,2.6274,2.6222,2.6267,2.616,2.6151,2.6166,2.6179,2.6156,2.6153,2.6136,2.6152,2.6214,2.6216,2.6218,2.6219,0,2.6646,2.6585,2.6486,2.6482,2.6516,2.6465,2.6476,2.6487,2.6462,2.6441,2.6425,2.6392,2.6372,2.6342,2.6401,2.6487,2.6273,2.6403,2.6288,2.6286,2.6234,2.6236,2.5871,2.6222,2.6222,2.6223,2.6224,0,2.6903,2.6886,2.6733,2.6764,2.6744,2.6677,2.6654,2.6611,2.6613,2.664,2.6622,2.6694,2.6609,2.6734,2.6616,2.6712,2.6685,2.6694,2.6687,2.6679,2.6817,2.66,2.6249,2.6213,2.6676,2.668,2.6683,0,2.72,2.7065,2.7141,2.6991,2.6937,2.7056,2.6982,2.6983,2.7013,2.6967,2.6999,2.6944,2.7051,2.7041,2.6976,2.7003,2.6878,2.7022,2.6945,2.6942,2.694,2.6619,2.6551,2.6321,2.6732,2.6727,2.6723,0,2.7439,2.7487,2.7455,2.7454,2.7474,2.7428,2.7343,2.7312,2.7278,2.7268,2.7197,2.7122,2.7199,2.7182,2.7237,2.7164,2.6965,2.7255,2.7256,2.7198,2.6763,2.6699,2.666,2.7017,2.7011,2.7006,2.6762,0,2.7808,2.775,2.7668,2.7664,2.7639,2.755,2.7619,2.7583,2.7641,2.7675,2.7571,2.7585,2.7547,2.752,2.7573,2.7392,2.743,2.7512,2.7636,2.7426,2.7346,2.7315,2.7748,2.7752,2.7756,2.7759,0,0,2.8074,2.7994,2.808,2.8005,2.7989,2.8114,2.8012,2.801,2.8001,2.7985,2.8057,2.7952,2.7959,2.7825,2.7765,2.775,2.7721,2.7792,2.7526,2.75,2.7476,2.739,2.7356,2.7765,2.7766,2.7767,2.7768,0,2.8224,2.824,2.8142,2.8145,2.8154,2.8198,2.8174,2.8202,2.8219,2.8121,2.822,2.8165,2.808,2.8073,2.8058,2.7812,2.7886,2.7795,2.7641,2.7558,2.7527,2.75,2.7409,2.7376,2.7776,2.7776,2.7775,0,2.847,2.8496,2.8457,2.8431,2.8437,2.8377,2.8527,2.8457,2.8412,2.8546,2.8445,2.846,2.8457,2.8324,2.8266,2.8327,2.8032,2.8137,2.8118,2.8111,2.8034,2.7997,2.7964,2.8397,2.8399,2.84,0,0,2.8589,2.8537,2.8589,2.8468,2.8465,2.8528,2.8503,2.8559,2.8559,2.8558,2.858,2.8572,2.8523,2.8488,2.8446,2.829,2.8293,2.8211,2.8182,2.8158,2.8138,2.8054,2.8018,2.8408,2.8408,2.8408,0,0,2.8644,2.8702,2.8763,2.8633,2.8632,2.8671,2.8592,2.8666,2.8636,2.8653,2.8738,2.874,2.8616,2.8626,2.8716,2.8489,2.8611,2.8591,2.8488,2.8451,2.8423,2.8421,2.8866,0,0,0,0,0,2.8834,2.8696,2.8751,2.874,2.8705,2.8642,2.8637,2.8709,2.8795,2.873,2.876,2.8844,2.8692,2.8774,2.8758,2.8656,2.8501,2.8484,2.8469,2.8299,2.8261,2.8228,0,0,0,0,0,0,2.883,2.8817,2.8755,2.8787,2.8781,2.8647,2.8808,2.8824,2.8803,2.8821,2.8836,2.8844,2.89,2.8787,2.8771,2.8673,2.8871,2.8495,2.8481,2.8468,2.8286,2.8255,2.8228,0,0,0,0,0,2.8828,2.8817,2.8744,2.879,2.8784,2.8846,2.8814,2.8828,2.8813,2.8859,2.8871,2.8869,2.8895,2.8887,2.8778,2.8678,2.8882,2.8876,2.8485,2.8474,2.8464,2.8271,0,0,0,0,0,0,2.8826,2.8827,2.8745,2.8745,2.8849,2.8855,2.8859,2.8832,2.8854,2.8864,2.8897,2.8911,2.889,2.8885,2.8878,2.8676,2.8891,2.8885,2.8881,2.8477,2.8468,2.8461,0,0,0,0,0,0,2.8834,2.8827,2.8745,2.8815,2.8824,2.8862,2.8866,2.8782,2.8852,2.8891,2.8903,2.8903,2.8898,2.8882,2.8878,2.8745,2.8898,2.8892,2.8888,2.8886,2.847,2.8463,0,0,0,0,0,0,2.8832,2.8826,2.8816,2.8822,2.8831,2.8843,2.879,2.8748,2.8918,2.8888,2.8935,2.8943,2.8893,2.889,2.8877,2.8745,2.8745,2.8898,2.8894,2.8891,2.8889,0,0,0,0,0,0,0,2.8831,2.8854,2.8742,2.8828,2.8836,2.8751,2.8751,2.8751,2.892,2.8927,2.8933,2.894,2.8931,2.8925,2.8918,2.8745,0,0,2.8898,2.8896,0,0,0,0,0,0,0,0,2.8858,2.8855,2.8742,2.8742,2.8742,2.8751,2.8751,2.8751,2.8921,2.8927,2.8932,2.8937,2.8929,2.8924,2.8919,0,0,0,0,0,0,0,0,0,0,0,0,0,0,0,2.8742,2.8742,0,2.8751,2.8751,2.8751,2.8922,2.8926,2.8931,2.8935,2.8928,2.8924,2.8919,0,0,0,0,0,0,0,0,0,0,0,0,0,0,0,0,0,0,0,0,0,0,0,0,0,0,0,0,0,0,0,0,0,0,0,0,0,0,0,0,0,0,0,0,0,0,0,0,0,0,0,0,0,0,0,0,0,0,0,0,0,0,0,0,0,0,0,0,0]}]]]